Perth, Australia

5:03 AM AWST on November 24, 2017 (GMT +0800)
Perth International

Weather History for YPPH - December, 2012

Change the Weather History Date:

Friday, December 14, 2012

  Actual Average Record
Temperature  
Mean Temperature 70 °F -  
Max Temperature 79 °F 86 °F 105 °F (2004)
Min Temperature 60 °F 61 °F 50 °F (2010)
Cooling Degree Days 4    
Growing Degree Days 20 (Base 50)    
Moisture  
Dew Point 57 °F    
Average Humidity 63    
Maximum Humidity 88    
Minimum Humidity 36    
Precipitation  
Precipitation 0.00 in 0.01 in - ()
Sea Level Pressure  
Sea Level Pressure 29.99 in    
Wind  
Wind Speed 10 mph ()    
Max Wind Speed 22 mph    
Max Gust Speed -    
Visibility 8.8 miles    
Events      
Averages and records for this station are not official NWS values.
T = Trace of Precipitation, MM = Missing Value Source: Averaged Metar Reports

Daily Weather History Graph

Daily Weather History Graph

Search for Another Location

Airport or City:

Trip Planner

Search our weather history database for the weather conditions in past years. The results will help you decide how hot, cold, wet, or windy it might be!

Date:

Astronomy

Dec. 14, 2012 Rise Set
Actual Time 5:04 AM AWST 7:17 PM AWST
Civil Twilight 4:36 AM AWST 7:45 PM AWST
Nautical Twilight 4:01 AM AWST 8:20 PM AWST
Astronomical Twilight 3:24 AM AWST 8:57 PM AWST
Moon 5:51 AM AWST (12/14) 8:10 PM AWST (12/14)
Length of Visible Light 15h 09m
Length of Day
14h 13m
New Moon, 1% of the Moon is Illuminated
Dec 14
New Moon
Dec 20
First Quarter
Dec 28
Full
Jan 5
Last Quarter
Jan 12
New

Hourly Weather History & Observations

Time (AWST) Temp. Dew Point Humidity Pressure Visibility Wind Dir Wind Speed Gust Speed Precip Events Conditions
12:00 AM 66 °F 59 °F 73% 29.94 in 19 mi South 8.1 mph - -   Partly Cloudy
12:00 AM 66.2 °F 59.0 °F 78% 29.95 in - South 8.1 mph - N/A   Clear
12:30 AM 66.2 °F 59.0 °F 78% 29.95 in 6.2 mi South 5.8 mph - N/A   Mostly Cloudy
1:00 AM 66.2 °F 59.0 °F 78% 29.95 in 6.2 mi SSW 6.9 mph - N/A   Mostly Cloudy
1:30 AM 66.2 °F 59.0 °F 78% 29.95 in 6.2 mi SW 8.1 mph - N/A   Scattered Clouds
2:00 AM 65 °F 59 °F 74% 29.95 in - South 8.1 mph - -  
2:00 AM 64.4 °F 59.0 °F 83% 29.95 in 6.2 mi South 8.1 mph - N/A   Partly Cloudy
2:30 AM 64.4 °F 59.0 °F 83% 29.95 in - South 8.1 mph - N/A   Clear
3:00 AM 63 °F 59 °F 83% 29.95 in 19 mi South 6.9 mph - -   Partly Cloudy
3:00 AM 62.6 °F 59.0 °F 88% 29.95 in - South 6.9 mph - N/A   Clear
3:30 AM 64.4 °F 57.2 °F 77% 29.95 in - South 6.9 mph - N/A   Clear
4:00 AM 62.6 °F 57.2 °F 82% 29.95 in - SE 6.9 mph - N/A   Clear
4:30 AM 62.6 °F 57.2 °F 82% 29.95 in - SSE 5.8 mph - N/A   Clear
5:00 AM 61 °F 56 °F 79% 29.97 in - SSE 3.5 mph - -  
5:00 AM 60.8 °F 55.4 °F 82% 29.95 in - SSE 3.5 mph - N/A   Clear
5:30 AM 62.6 °F 57.2 °F 82% 29.98 in - SSW 4.6 mph - N/A   Clear
6:00 AM 65 °F 57 °F 69% 29.99 in 16 mi ESE 4.6 mph - -   Partly Cloudy
6:00 AM 64.4 °F 57.2 °F 77% 29.98 in - ESE 4.6 mph - N/A   Clear
6:30 AM 66.2 °F 55.4 °F 68% 30.01 in - SSE 6.9 mph - N/A   Clear
7:30 AM 68.0 °F 57.2 °F 68% 30.01 in 6.2 mi SSW 11.5 mph - N/A   Mostly Cloudy
8:00 AM 69 °F 56 °F 54% 30.03 in - South 11.5 mph - -  
8:00 AM 69.8 °F 55.4 °F 60% 30.04 in 6.2 mi South 11.5 mph - N/A   Mostly Cloudy
8:30 AM 69.8 °F 55.4 °F 60% 30.01 in 6.2 mi South 11.5 mph - N/A   Mostly Cloudy
9:00 AM 72 °F 56 °F 48% 30.02 in 19 mi South 11.5 mph - -   Partly Cloudy
9:00 AM 71.6 °F 57.2 °F 60% 30.01 in 6.2 mi South 11.5 mph - N/A   Partly Cloudy
9:30 AM 71.6 °F 55.4 °F 57% 30.01 in 6.2 mi South 9.2 mph - N/A   Partly Cloudy
10:00 AM 75.2 °F 53.6 °F 47% 30.01 in 6.2 mi South 10.4 mph - N/A   Mostly Cloudy
10:30 AM 75.2 °F 53.6 °F 47% 30.01 in 6.2 mi SW 9.2 mph - N/A   Scattered Clouds
11:00 AM 75 °F 55 °F 39% 30.01 in - South 10.4 mph - -  
11:00 AM 75.2 °F 55.4 °F 50% 30.01 in 6.2 mi South 10.4 mph - N/A   Scattered Clouds
11:30 AM 77.0 °F 55.4 °F 47% 30.01 in 6.2 mi SSW 8.1 mph - N/A   Scattered Clouds
12:00 PM 77 °F 55 °F 36% 30.01 in 19 mi SSW 13.8 mph - -   Partly Cloudy
12:00 PM 77.0 °F 55.4 °F 47% 30.01 in 6.2 mi SSW 13.8 mph - N/A   Scattered Clouds
12:30 PM 78.8 °F 55.4 °F 44% 30.01 in 6.2 mi SSW 12.7 mph - N/A   Scattered Clouds
1:00 PM 78.8 °F 55.4 °F 44% 29.98 in 6.2 mi SW 10.4 mph - N/A   Scattered Clouds
1:30 PM 78.8 °F 57.2 °F 47% 29.98 in 6.2 mi WSW 15.0 mph - N/A   Scattered Clouds
2:00 PM 79 °F 58 °F 38% 29.98 in - SSW 17.3 mph - -  
2:00 PM 78.8 °F 57.2 °F 47% 29.98 in 6.2 mi SSW 17.3 mph - N/A   Partly Cloudy
2:30 PM 78.8 °F 59.0 °F 51% 29.98 in 6.2 mi WSW 16.1 mph - N/A   Partly Cloudy
3:00 PM 78 °F 58 °F 40% 29.97 in 19 mi SW 16.1 mph - -   Partly Cloudy
3:00 PM 78.8 °F 59.0 °F 51% 29.95 in 6.2 mi SW 16.1 mph - N/A   Partly Cloudy
3:30 PM 78.8 °F 59.0 °F 51% 29.95 in 6.2 mi SW 18.4 mph - N/A   Partly Cloudy
4:00 PM 78.8 °F 59.0 °F 51% 29.95 in 6.2 mi SW 18.4 mph - N/A   Partly Cloudy
4:30 PM 77.0 °F 59.0 °F 54% 29.95 in 6.2 mi SW 18.4 mph - N/A   Partly Cloudy
5:00 PM 76 °F 58 °F 44% 29.97 in - SW 18.4 mph - -  
5:00 PM 77.0 °F 59.0 °F 54% 29.95 in 6.2 mi SW 18.4 mph - N/A   Partly Cloudy
5:30 PM 75.2 °F 59.0 °F 57% 29.98 in 6.2 mi SW 21.9 mph - N/A   Partly Cloudy
6:00 PM 73 °F 59 °F 52% 29.99 in 19 mi SW 21.9 mph - -   Partly Cloudy
6:00 PM 73.4 °F 59.0 °F 61% 29.98 in 6.2 mi SW 21.9 mph - N/A   Partly Cloudy
6:30 PM 71.6 °F 57.2 °F 60% 29.98 in 6.2 mi SSW 19.6 mph - N/A   Partly Cloudy
7:00 PM 69.8 °F 57.2 °F 64% 29.98 in 6.2 mi SSW 20.7 mph - N/A   Partly Cloudy
7:30 PM 68.0 °F 59.0 °F 73% 30.01 in 6.2 mi SSW 17.3 mph - N/A   Partly Cloudy
8:00 PM 68 °F 58 °F 63% 30.02 in - SSW 12.7 mph - -  
8:00 PM 68.0 °F 59.0 °F 73% 30.01 in - SSW 12.7 mph - N/A   Clear
8:30 PM 68.0 °F 57.2 °F 68% 30.01 in - SSW 15.0 mph - N/A   Clear
9:00 PM 67 °F 57 °F 63% 30.04 in 16 mi SSW 15.0 mph - -   Partly Cloudy
9:00 PM 68.0 °F 57.2 °F 68% 30.04 in - SSW 15.0 mph - N/A   Clear
9:30 PM 66.2 °F 57.2 °F 73% 30.04 in - South 16.1 mph - N/A   Clear
10:00 PM 66.2 °F 57.2 °F 73% 30.04 in - South 11.5 mph - N/A   Clear
10:30 PM 66.2 °F 57.2 °F 73% 30.04 in - SSW 11.5 mph - N/A   Clear
11:00 PM 65 °F 58 °F 71% 30.04 in - South 11.5 mph - -  
11:00 PM 66.2 °F 57.2 °F 73% 30.04 in - South 11.5 mph - N/A   Clear
11:30 PM 64.4 °F 57.2 °F 77% 30.04 in - SSW 12.7 mph - N/A   Clear